Flag for Germany Weather past 2 weeks in Wilhelmshaven, Lower Saxony, Germany

Now
70 °F

Mild.


Feels Like: 70 °F
Forecast: 61 / 79 °F
Wind: 12 mph from Southeast

Location: Wittmundhaven

Current Time: Jul 2, 2015 at 2:19:48 AM

Latest Report: Jul 2, 2015 at 1:20 AM


Visibility: 5 mi

Pressure: 30.12 "Hg

Humidity: 57%

Dew point: 54 °F

Location of WilhelmshavenLocation

Historic Weather in Wilhelmshaven — Graph

°F

Wilhelmshaven temperature yesterday

Maximum temperature yesterday: 84 °F (at 4:20 PM)
Minimum temperature yesterday: 57 °F (at 2:20 AM)
Average temperature yesterday: 72 °F

Past Weeks' High & Low Weather Summary

 TemperatureHumidityPressure
High84 °F (Jul 1, 4:20 PM)100% (Jun 18, 1:20 AM)30.30 "Hg (Jun 18, 1:20 AM)
Low43 °F (Jun 17, 4:20 AM)33% (Jul 1, 4:20 PM)29.65 "Hg (Jun 22, 7:20 PM)
Average59 °F78%30.04 "Hg
* Reported Jun 17 12:20 AM — Jul 2 12:20 AM, Wilhelmshaven, Weather by CustomWeather, © 2015

Note: Actual official high and low records may vary slightly from our data, if they occured in-between our weather recording intervals... More about our weather records

Advertising

Wilhelmshaven weather history for previous 24 hours

 ConditionsComfort  
Time TempWeatherWind HumidityBarometerVisibility
12:20 AM
Thu, Jul 2
72 °FMild.10 mph57%30.12 "Hg5 mi
11:20 PM
Wed, Jul 1
73 °FMild.10 mph53%30.12 "Hg5 mi
10:20 PM75 °FMild.9 mph54%30.09 "HgN/A
9:20 PM79 °FWarm.8 mph48%30.09 "HgN/A
8:20 PM82 °FPleasantly warm.10 mph40%30.09 "HgN/A
7:20 PM84 °FPleasantly warm.14 mph35%30.09 "HgN/A
6:20 PM84 °FPleasantly warm.14 mph33%30.09 "HgN/A
5:20 PM84 °FPleasantly warm.14 mph33%30.09 "HgN/A
4:20 PM84 °FPassing clouds.14 mph33%30.12 "HgN/A
3:20 PM82 °FPassing clouds.13 mph37%30.12 "HgN/A
2:20 PM81 °FPassing clouds.14 mph42%30.12 "HgN/A
1:20 PM79 °FPassing clouds.15 mph48%30.15 "HgN/A
12:20 PM77 °FPassing clouds.14 mph51%30.15 "HgN/A
11:20 AM75 °FPassing clouds.13 mph50%30.15 "HgN/A
10:20 AM72 °FPassing clouds.12 mph57%30.18 "HgN/A
9:20 AM68 °FPassing clouds.12 mph64%30.18 "HgN/A
8:20 AM66 °FPassing clouds.10 mph64%30.18 "HgN/A
7:20 AM63 °FPassing clouds.10 mph73%30.18 "HgN/A
6:20 AM61 °FCool.9 mph72%30.18 "HgN/A
5:20 AM57 °FCool.8 mph82%30.18 "HgN/A
4:20 AM57 °FCool.7 mph88%30.18 "HgN/A
3:20 AM57 °FCool.7 mph88%30.18 "Hg6 mi
2:20 AM57 °FCool.6 mph94%30.18 "HgN/A
Weather by CustomWeather, © 2015

See weather overviewHow to use our weather pages